Location: Deurze
(52.9838°N, 6.6090°E)
Time: 19:19:15
(UTC+00:00)

Cosmos 2263 Rocket - Pass Details

Date: 11 March 2026
Orbit: 823 x 846 km, 71.0° (Epoch: 20 April)

Event Time Altitude Azimuth Distance (km) Brightness Sun altitude
Rises 21:27:27 0° 328° (NNW) 3,410 6.4 -33.1°
Reaches altitude 10° 21:30:09 10° 338° (NNW) 2,469 5.4 -33.4°
Enters shadow 21:33:57 30° 15° (NNE) 1,454 3.6 -33.7°
